Location: Chavannes
(47.1090°N, 0.2226°W)
Time: 03:44:41
(UTC+00:00)

CZ-4C R/B - Pass Details

Date: 16 October 2021
Orbit: 403 x 482 km, 97.7° (Epoch: 03 December)

Event Time Altitude Azimuth Distance (km) Brightness Sun altitude
Rises 18:48:11 0° 7° (N) 2,520 6.7 -17.2°
Reaches altitude 10° 18:50:20 10° 1° (N) 1,625 5.8 -17.6°
Maximum altitude 18:53:39 43° 289° (WNW) 652 4.2 -18.1°
Drops below altitude 10° 18:56:51 10° 216° (SW) 1,569 6.0 -18.7°
Sets 18:58:53 0° 210° (SSW) 2,419 6.9 -19.0°
